Regional Weather Roundup
Issued by NWS Goodland, KS

Home | Current Version | Previous Version | Graphics & Text | Print | Product List | Glossary On
Versions: 1 2 3 4 5 6 7 8 9 10 11 12 13 14 15 16 17 18 19 20 21 22 23 24 25 26 27 28 29 30 31 32 33 34 35 36 37 38 39 40 41 42 43 44 45 46 47 48 49 50
000
ASUS43 KGLD 200959
RWRGLD

GOODLAND FORECAST AREA HOURLY WEATHER ROUNDUP
NATIONAL WEATHER SERVICE GOODLAND KS
400 AM MDT SUN APR 20 2014

...OFFICIAL OBSERVATIONS...

CITY           SKY/WX    TMP DP  RH WIND       PRES   REMARKS
GOODLAND KS    MOCLDY    44  43  96 N6        29.99F FOG
HILL CITY KS   MOCLDY    55  50  83 S3        29.98S
IMPERIAL NEB   PTCLDY    41  37  86 N5        30.01S
MCCOOK NEB     CLOUDY    52  50  93 N8        29.97F FOG
AKRON CO       PTCLDY    42  37  82 W9        30.01F
BURLINGTON CO  MOCLDY    47  44  90 NE8       29.99F
LIMON CO       MOCLDY    41  39  93 W3        30.03F
$$

...UNOFFICIAL OBSERVATIONS...

CITY           SKY/WX    TMP DP  RH WIND       PRES   REMARKS
COLBY KS       CLEAR     48  48 100 NE6       29.98F
LENORA KS        N/A     54  32  43 CALM        N/A
LEOTI KS         N/A     54  32  43 S5          N/A
NORTON KS      MOCLDY    52  46  82 CALM      29.96S
SHARON SPRINGS   N/A     46  44  92 CALM        N/A
WAKEENEY KS      N/A     55  46  71 MISG        N/A
KIT CARSON CO    N/A     48  43  84 MISG        N/A
$$



USA.gov is the U.S. government's official web portal to all federal, state and local government web resources and services.